Time,TemperatureF,DewpointF,PressureIn,WindDirection,WindDirectionDegrees,WindSpeedMPH,WindSpeedGustMPH,Humidity,HourlyPrecipIn,Conditions,Clouds,dailyrainin,SolarRadiationWatts/m^2,SoftwareType,DateUTC
2013-04-22 00:01:00,34.0,27.0,30.65,East,96,0.0,0.0,75,0.00,,,0.00,0.0,meteohub,2013-04-22 04:01:00,
2013-04-22 00:02:00,33.8,26.8,30.65,East,96,0.0,0.0,75,0.00,,,0.00,0.0,meteohub,2013-04-22 04:02:00,
2013-04-22 00:07:00,33.6,26.6,30.65,East,96,0.0,0.0,75,0.00,,,0.00,0.0,meteohub,2013-04-22 04:07:00,
2013-04-22 00:13:00,33.6,26.6,30.65,East,96,0.0,0.0,75,0.00,,,0.00,0.0,meteohub,2013-04-22 04:13:00,
2013-04-22 00:18:00,33.4,26.4,30.65,East,96,0.0,0.0,75,0.00,,,0.00,0.0,meteohub,2013-04-22 04:18:00,
2013-04-22 00:23:00,33.3,26.2,30.65,East,96,0.0,0.0,75,0.00,,,0.00,0.0,meteohub,2013-04-22 04:23:00,
2013-04-22 00:29:00,33.3,26.2,30.65,East,96,0.0,0.0,75,0.00,,,0.00,0.0,meteohub,2013-04-22 04:29:00,
2013-04-22 00:34:00,33.1,26.4,30.65,East,96,0.0,0.0,76,0.00,,,0.00,0.0,meteohub,2013-04-22 04:34:00,
2013-04-22 00:39:00,32.9,26.2,30.65,ESE,107,0.0,1.0,76,0.00,,,0.00,0.0,meteohub,2013-04-22 04:39:00,
2013-04-22 00:44:00,32.7,26.2,30.65,ESE,107,0.0,1.0,77,0.00,,,0.00,0.0,meteohub,2013-04-22 04:44:00,
2013-04-22 00:50:00,32.7,26.2,30.65,ESE,107,0.0,1.0,77,0.00,,,0.00,0.0,meteohub,2013-04-22 04:50:00,
2013-04-22 00:55:00,32.5,26.1,30.65,ESE,107,0.0,1.0,77,0.00,,,0.00,0.0,meteohub,2013-04-22 04:55:00,
2013-04-22 01:00:00,32.5,26.4,30.65,ESE,107,0.0,1.0,78,0.00,,,0.00,0.0,meteohub,2013-04-22 05:00:00,
2013-04-22 01:06:00,32.5,26.4,30.65,ESE,107,0.0,1.0,78,0.00,,,0.00,0.0,meteohub,2013-04-22 05:06:00,
2013-04-22 01:11:00,32.5,26.4,30.66,ESE,107,0.0,1.0,78,0.00,,,0.00,0.0,meteohub,2013-04-22 05:11:00,
2013-04-22 01:16:00,32.5,26.4,30.65,ESE,107,0.0,1.0,78,0.00,,,0.00,0.0,meteohub,2013-04-22 05:16:00,
2013-04-22 01:22:00,32.4,26.6,30.66,ESE,107,0.0,0.0,79,0.00,,,0.00,0.0,meteohub,2013-04-22 05:22:00,
2013-04-22 01:27:00,32.5,26.8,30.66,ESE,107,0.0,0.0,79,0.00,,,0.00,0.0,meteohub,2013-04-22 05:27:00,
2013-04-22 01:32:00,32.4,26.6,30.66,SE,134,1.0,1.0,79,0.00,,,0.00,0.0,meteohub,2013-04-22 05:32:00,
2013-04-22 01:37:00,32.4,27.0,30.65,SE,134,0.0,2.0,80,0.00,,,0.00,0.0,meteohub,2013-04-22 05:37:00,
2013-04-22 01:42:00,32.4,27.0,30.65,SE,134,0.0,2.0,80,0.00,,,0.00,0.0,meteohub,2013-04-22 05:42:00,
2013-04-22 01:48:00,32.4,27.0,30.65,SE,134,0.0,2.0,80,0.00,,,0.00,0.0,meteohub,2013-04-22 05:48:00,
2013-04-22 01:53:00,32.2,26.4,30.65,SE,134,0.0,2.0,79,0.00,,,0.00,0.0,meteohub,2013-04-22 05:53:00,
2013-04-22 01:58:00,32.2,26.4,30.65,SE,134,0.0,0.0,79,0.00,,,0.00,0.0,meteohub,2013-04-22 05:58:00,
2013-04-22 02:04:00,32.2,26.8,30.65,SE,134,0.0,0.0,80,0.00,,,0.00,0.0,meteohub,2013-04-22 06:04:00,
2013-04-22 02:09:00,32.2,26.8,30.65,SE,134,0.0,0.0,80,0.00,,,0.00,0.0,meteohub,2013-04-22 06:09:00,
2013-04-22 02:14:00,32.0,26.6,30.65,SE,134,0.0,1.0,80,0.00,,,0.00,0.0,meteohub,2013-04-22 06:14:00,
2013-04-22 02:20:00,32.2,26.8,30.65,SE,134,0.0,0.0,80,0.00,,,0.00,0.0,meteohub,2013-04-22 06:20:00,
2013-04-22 02:25:00,32.2,26.8,30.65,SE,134,0.0,0.0,80,0.00,,,0.00,0.0,meteohub,2013-04-22 06:25:00,
2013-04-22 02:30:00,32.2,26.8,30.65,SE,134,0.0,0.0,80,0.00,,,0.00,0.0,meteohub,2013-04-22 06:30:00,
2013-04-22 02:35:00,32.2,26.4,30.65,SE,134,0.0,0.0,79,0.00,,,0.00,0.0,meteohub,2013-04-22 06:35:00,
2013-04-22 02:41:00,32.2,26.4,30.65,SE,134,0.0,0.0,79,0.00,,,0.00,0.0,meteohub,2013-04-22 06:41:00,
2013-04-22 02:46:00,32.0,26.2,30.65,SE,134,0.0,0.0,79,0.00,,,0.00,0.0,meteohub,2013-04-22 06:46:00,
2013-04-22 02:51:00,32.2,26.1,30.65,SE,134,0.0,0.0,78,0.00,,,0.00,0.0,meteohub,2013-04-22 06:51:00,
2013-04-22 02:57:00,32.2,26.1,30.66,SE,134,0.0,2.0,78,0.00,,,0.00,0.0,meteohub,2013-04-22 06:57:00,
2013-04-22 03:02:00,32.2,25.7,30.66,SE,134,0.0,2.0,77,0.00,,,0.00,0.0,meteohub,2013-04-22 07:02:00,
2013-04-22 03:07:00,32.2,25.7,30.66,SE,134,0.0,2.0,77,0.00,,,0.00,0.0,meteohub,2013-04-22 07:07:00,
2013-04-22 03:12:00,32.2,25.7,30.66,SE,134,0.0,0.0,77,0.00,,,0.00,0.0,meteohub,2013-04-22 07:12:00,
2013-04-22 03:17:00,32.2,25.7,30.66,SE,134,0.0,0.0,77,0.00,,,0.00,0.0,meteohub,2013-04-22 07:17:00,
2013-04-22 03:22:00,32.2,25.7,30.65,SE,134,0.0,0.0,77,0.00,,,0.00,0.0,meteohub,2013-04-22 07:22:00,
2013-04-22 03:27:00,32.2,25.5,30.66,SE,136,0.0,0.0,76,0.00,,,0.00,0.0,meteohub,2013-04-22 07:27:00,
2013-04-22 03:32:00,32.0,25.3,30.66,SE,136,0.0,2.0,76,0.00,,,0.00,0.0,meteohub,2013-04-22 07:32:00,
2013-04-22 03:37:00,32.0,25.3,30.66,SE,136,0.0,2.0,76,0.00,,,0.00,0.0,meteohub,2013-04-22 07:37:00,
2013-04-22 03:42:00,31.8,25.2,30.65,SE,136,0.0,2.0,76,0.00,,,0.00,0.0,meteohub,2013-04-22 07:42:00,
2013-04-22 03:47:00,31.6,25.3,30.65,SE,136,0.0,2.0,77,0.00,,,0.00,0.0,meteohub,2013-04-22 07:47:00,
2013-04-22 03:52:00,31.5,25.2,30.65,SE,136,0.0,0.0,77,0.00,,,0.00,0.0,meteohub,2013-04-22 07:52:00,
2013-04-22 03:57:00,31.5,25.2,30.65,SE,136,0.0,2.0,77,0.00,,,0.00,0.0,meteohub,2013-04-22 07:57:00,
2013-04-22 04:02:00,31.3,25.2,30.65,SE,136,0.0,2.0,78,0.00,,,0.00,0.0,meteohub,2013-04-22 08:02:00,
2013-04-22 04:07:00,31.3,25.2,30.66,SE,136,0.0,2.0,78,0.00,,,0.00,0.0,meteohub,2013-04-22 08:07:00,
2013-04-22 04:12:00,31.3,25.2,30.66,SE,136,0.0,2.0,78,0.00,,,0.00,0.0,meteohub,2013-04-22 08:12:00,
2013-04-22 04:17:00,31.1,25.0,30.66,SE,136,0.0,2.0,78,0.00,,,0.00,0.0,meteohub,2013-04-22 08:17:00,
2013-04-22 04:22:00,31.1,25.0,30.66,SE,136,0.0,0.0,78,0.00,,,0.00,0.0,meteohub,2013-04-22 08:22:00,
2013-04-22 04:27:00,31.1,25.0,30.66,SE,136,0.0,0.0,78,0.00,,,0.00,0.0,meteohub,2013-04-22 08:27:00,
2013-04-22 04:32:00,31.1,25.0,30.66,SE,136,0.0,0.0,78,0.00,,,0.00,0.0,meteohub,2013-04-22 08:32:00,
2013-04-22 04:37:00,30.9,24.8,30.66,SE,136,0.0,0.0,78,0.00,,,0.00,0.0,meteohub,2013-04-22 08:37:00,
2013-04-22 04:42:00,30.9,24.8,30.66,SE,136,0.0,0.0,78,0.00,,,0.00,0.0,meteohub,2013-04-22 08:42:00,
2013-04-22 04:47:00,30.7,24.6,30.66,SE,136,0.0,0.0,78,0.00,,,0.00,0.0,meteohub,2013-04-22 08:47:00,
2013-04-22 04:52:00,30.7,24.6,30.66,SE,136,0.0,0.0,78,0.00,,,0.00,0.0,meteohub,2013-04-22 08:52:00,
2013-04-22 04:57:00,30.7,24.6,30.66,SE,136,0.0,0.0,78,0.00,,,0.00,0.0,meteohub,2013-04-22 08:57:00,
2013-04-22 05:02:00,30.6,24.8,30.66,SE,136,0.0,0.0,79,0.00,,,0.00,0.0,meteohub,2013-04-22 09:02:00,
2013-04-22 05:07:00,30.6,24.8,30.66,SE,136,0.0,0.0,79,0.00,,,0.00,0.0,meteohub,2013-04-22 09:07:00,
2013-04-22 05:12:00,30.6,24.8,30.66,SE,136,0.0,0.0,79,0.00,,,0.00,0.0,meteohub,2013-04-22 09:12:00,
2013-04-22 05:17:00,30.6,24.8,30.67,SE,136,0.0,0.0,79,0.00,,,0.00,0.0,meteohub,2013-04-22 09:17:00,
2013-04-22 05:22:00,30.4,25.0,30.67,SE,136,0.0,0.0,80,0.00,,,0.00,0.0,meteohub,2013-04-22 09:22:00,
2013-04-22 05:27:00,30.4,25.0,30.67,SE,136,0.0,0.0,80,0.00,,,0.00,0.0,meteohub,2013-04-22 09:27:00,
2013-04-22 05:32:00,30.2,24.8,30.67,SE,136,0.0,0.0,80,0.00,,,0.00,0.0,meteohub,2013-04-22 09:32:00,
2013-04-22 05:37:00,30.0,24.6,30.67,SE,136,0.0,0.0,80,0.00,,,0.00,0.0,meteohub,2013-04-22 09:37:00,
2013-04-22 05:42:00,30.0,24.6,30.68,SE,136,0.0,0.0,80,0.00,,,0.00,0.0,meteohub,2013-04-22 09:42:00,
2013-04-22 05:47:00,30.0,24.6,30.68,SE,136,0.0,0.0,80,0.00,,,0.00,0.0,meteohub,2013-04-22 09:47:00,
2013-04-22 05:52:00,30.0,24.6,30.68,SE,136,0.0,0.0,80,0.00,,,0.00,0.0,meteohub,2013-04-22 09:52:00,
2013-04-22 05:57:00,30.0,25.0,30.68,SE,136,0.0,0.0,81,0.00,,,0.00,0.0,meteohub,2013-04-22 09:57:00,
2013-04-22 06:02:00,30.0,25.0,30.68,SE,136,0.0,0.0,81,0.00,,,0.00,0.0,meteohub,2013-04-22 10:02:00,
2013-04-22 06:07:00,30.0,25.0,30.68,SE,136,0.0,0.0,81,0.00,,,0.00,0.0,meteohub,2013-04-22 10:07:00,
2013-04-22 06:12:00,30.0,25.0,30.69,SE,136,0.0,0.0,81,0.00,,,0.00,5.0,meteohub,2013-04-22 10:12:00,
2013-04-22 06:17:00,30.2,25.3,30.69,SE,136,0.0,0.0,82,0.00,,,0.00,9.0,meteohub,2013-04-22 10:17:00,
2013-04-22 06:23:00,30.2,25.3,30.69,SE,136,0.0,0.0,82,0.00,,,0.00,12.0,meteohub,2013-04-22 10:23:00,
2013-04-22 06:28:00,30.2,25.3,30.69,SE,136,0.0,0.0,82,0.00,,,0.00,16.0,meteohub,2013-04-22 10:28:00,
2013-04-22 06:33:00,30.2,25.3,30.70,SE,136,0.0,0.0,82,0.00,,,0.00,23.0,meteohub,2013-04-22 10:33:00,
2013-04-22 06:39:00,30.4,25.5,30.70,SE,136,0.0,0.0,82,0.00,,,0.00,26.0,meteohub,2013-04-22 10:39:00,
2013-04-22 06:44:00,30.4,25.9,30.70,SE,136,0.0,0.0,83,0.00,,,0.00,32.0,meteohub,2013-04-22 10:44:00,
2013-04-22 06:49:00,30.6,26.1,30.70,SE,136,0.0,0.0,83,0.00,,,0.00,37.0,meteohub,2013-04-22 10:49:00,
2013-04-22 06:55:00,30.6,26.1,30.70,SE,136,0.0,0.0,83,0.00,,,0.00,42.0,meteohub,2013-04-22 10:55:00,
2013-04-22 07:00:00,30.7,26.2,30.70,SE,136,0.0,0.0,83,0.00,,,0.00,47.0,meteohub,2013-04-22 11:00:00,
2013-04-22 07:05:00,30.7,26.4,30.70,SE,136,0.0,0.0,84,0.00,,,0.00,51.0,meteohub,2013-04-22 11:05:00,
2013-04-22 07:11:00,30.9,26.6,30.70,SE,136,0.0,0.0,84,0.00,,,0.00,54.0,meteohub,2013-04-22 11:11:00,
2013-04-22 07:16:00,30.9,26.6,30.70,SE,136,0.0,0.0,84,0.00,,,0.00,58.0,meteohub,2013-04-22 11:16:00,
2013-04-22 07:21:00,31.1,26.8,30.70,SE,136,0.0,0.0,84,0.00,,,0.00,62.0,meteohub,2013-04-22 11:21:00,
2013-04-22 07:26:00,31.3,27.0,30.70,SE,136,0.0,0.0,84,0.00,,,0.00,63.0,meteohub,2013-04-22 11:26:00,
2013-04-22 07:31:00,31.5,27.1,30.70,SE,136,0.0,0.0,84,0.00,,,0.00,65.0,meteohub,2013-04-22 11:31:00,
2013-04-22 07:37:00,31.8,27.5,30.70,SE,136,0.0,0.0,84,0.00,,,0.00,65.0,meteohub,2013-04-22 11:37:00,
2013-04-22 07:42:00,32.4,28.0,30.70,SE,136,0.0,0.0,84,0.00,,,0.00,65.0,meteohub,2013-04-22 11:42:00,
2013-04-22 07:47:00,32.5,28.2,30.70,SE,136,0.0,0.0,84,0.00,,,0.00,67.0,meteohub,2013-04-22 11:47:00,
2013-04-22 07:52:00,32.9,28.2,30.70,SE,136,0.0,0.0,83,0.00,,,0.00,70.0,meteohub,2013-04-22 11:52:00,
2013-04-22 07:57:00,33.3,28.6,30.70,SE,136,0.0,0.0,83,0.00,,,0.00,76.0,meteohub,2013-04-22 11:57:00,
2013-04-22 08:02:00,34.0,28.8,30.70,SE,136,0.0,0.0,81,0.00,,,0.00,90.0,meteohub,2013-04-22 12:02:00,
2013-04-22 08:07:00,34.9,28.8,30.70,SE,136,0.0,0.0,78,0.00,,,0.00,102.0,meteohub,2013-04-22 12:07:00,
2013-04-22 08:12:00,35.6,28.2,30.70,ESE,117,2.0,0.0,74,0.00,,,0.00,113.0,meteohub,2013-04-22 12:12:00,
2013-04-22 08:17:00,36.7,27.9,30.70,East,96,1.0,3.0,70,0.00,,,0.00,121.0,meteohub,2013-04-22 12:17:00,
2013-04-22 08:22:00,37.6,27.7,30.70,East,100,0.0,3.0,67,0.00,,,0.00,125.0,meteohub,2013-04-22 12:22:00,
2013-04-22 08:27:00,38.3,27.5,30.70,East,100,1.0,3.0,65,0.00,,,0.00,125.0,meteohub,2013-04-22 12:27:00,
2013-04-22 08:32:00,39.0,28.2,30.70,East,97,0.0,3.0,65,0.00,,,0.00,120.0,meteohub,2013-04-22 12:32:00,
2013-04-22 08:37:00,39.6,27.7,30.69,East,98,1.0,3.0,62,0.00,,,0.00,111.0,meteohub,2013-04-22 12:37:00,
2013-04-22 08:42:00,40.1,28.0,30.70,East,98,0.0,3.0,62,0.00,,,0.00,109.0,meteohub,2013-04-22 12:42:00,
2013-04-22 08:47:00,40.5,28.0,30.70,East,98,0.0,3.0,61,0.00,,,0.00,111.0,meteohub,2013-04-22 12:47:00,
2013-04-22 08:52:00,40.8,27.7,30.70,East,98,3.0,3.0,59,0.00,,,0.00,100.0,meteohub,2013-04-22 12:52:00,
2013-04-22 08:57:00,41.4,27.3,30.70,South,184,1.0,3.0,57,0.00,,,0.00,104.0,meteohub,2013-04-22 12:57:00,
2013-04-22 09:02:00,41.4,26.4,30.70,WSW,237,1.0,3.0,55,0.00,,,0.00,360.0,meteohub,2013-04-22 13:02:00,
2013-04-22 09:07:00,41.7,27.1,30.70,WSW,237,0.0,3.0,56,0.00,,,0.00,533.0,meteohub,2013-04-22 13:07:00,
2013-04-22 09:12:00,42.3,26.8,30.70,SE,130,2.0,3.0,54,0.00,,,0.00,418.0,meteohub,2013-04-22 13:12:00,
2013-04-22 09:17:00,43.0,28.8,30.70,South,182,0.0,3.0,57,0.00,,,0.00,515.0,meteohub,2013-04-22 13:17:00,
2013-04-22 09:22:00,43.5,28.0,30.70,South,182,0.0,4.0,54,0.00,,,0.00,476.0,meteohub,2013-04-22 13:22:00,
2013-04-22 09:28:00,44.2,28.2,30.70,South,182,0.0,4.0,53,0.00,,,0.00,504.0,meteohub,2013-04-22 13:28:00,
2013-04-22 09:33:00,44.4,28.4,30.70,SSW,192,0.0,4.0,53,0.00,,,0.00,308.0,meteohub,2013-04-22 13:33:00,
2013-04-22 09:38:00,44.2,28.6,30.69,SSW,192,0.0,4.0,54,0.00,,,0.00,244.0,meteohub,2013-04-22 13:38:00,
2013-04-22 09:44:00,44.8,28.8,30.70,WSW,242,1.0,4.0,53,0.00,,,0.00,297.0,meteohub,2013-04-22 13:44:00,
2013-04-22 09:49:00,45.1,28.0,30.70,South,187,1.0,4.0,51,0.00,,,0.00,264.0,meteohub,2013-04-22 13:49:00,
2013-04-22 09:54:00,45.1,28.0,30.70,ESE,115,1.0,5.0,51,0.00,,,0.00,373.0,meteohub,2013-04-22 13:54:00,
2013-04-22 09:59:00,45.7,29.1,30.70,SSE,154,0.0,5.0,52,0.00,,,0.00,392.0,meteohub,2013-04-22 13:59:00,
2013-04-22 10:05:00,46.0,29.5,30.70,ESE,118,1.0,5.0,52,0.00,,,0.00,359.0,meteohub,2013-04-22 14:05:00,
2013-04-22 10:10:00,46.4,29.7,30.70,SSE,161,1.0,5.0,52,0.00,,,0.00,315.0,meteohub,2013-04-22 14:10:00,
2013-04-22 10:15:00,46.6,28.9,30.70,South,173,1.0,5.0,50,0.00,,,0.00,408.0,meteohub,2013-04-22 14:15:00,
2013-04-22 10:21:00,46.6,27.9,30.70,SW,227,0.0,5.0,48,0.00,,,0.00,396.0,meteohub,2013-04-22 14:21:00,
2013-04-22 10:26:00,46.8,28.6,30.71,SSW,206,4.0,5.0,49,0.00,,,0.00,457.0,meteohub,2013-04-22 14:26:00,
2013-04-22 10:31:00,46.9,28.8,30.71,South,173,0.0,5.0,49,0.00,,,0.00,496.0,meteohub,2013-04-22 14:31:00,
2013-04-22 10:37:00,47.5,30.2,30.70,ESE,107,0.0,7.0,51,0.00,,,0.00,390.0,meteohub,2013-04-22 14:37:00,
2013-04-22 10:42:00,47.7,30.0,30.70,SE,127,2.0,7.0,50,0.00,,,0.00,383.0,meteohub,2013-04-22 14:42:00,
2013-04-22 10:47:00,47.8,29.7,30.70,South,186,3.0,7.0,49,0.00,,,0.00,538.0,meteohub,2013-04-22 14:47:00,
2013-04-22 10:52:00,48.4,30.6,30.70,SSW,202,0.0,5.0,50,0.00,,,0.00,441.0,meteohub,2013-04-22 14:52:00,
2013-04-22 10:57:00,48.6,29.3,30.70,ENE,78,1.0,5.0,47,0.00,,,0.00,621.0,meteohub,2013-04-22 14:57:00,
2013-04-22 11:02:00,49.3,29.3,30.69,South,177,4.0,5.0,46,0.00,,,0.00,654.0,meteohub,2013-04-22 15:02:00,
2013-04-22 11:07:00,49.5,30.6,30.69,SE,128,4.0,5.0,48,0.00,,,0.00,722.0,meteohub,2013-04-22 15:07:00,
2013-04-22 11:12:00,50.2,30.2,30.69,ESE,121,3.0,5.0,46,0.00,,,0.00,786.0,meteohub,2013-04-22 15:12:00,
2013-04-22 11:17:00,50.5,30.0,30.68,East,101,3.0,7.0,45,0.00,,,0.00,680.0,meteohub,2013-04-22 15:17:00,
2013-04-22 11:22:00,50.7,30.2,30.67,ESE,112,0.0,7.0,45,0.00,,,0.00,664.0,meteohub,2013-04-22 15:22:00,
2013-04-22 11:27:00,50.9,30.9,30.67,NNE,30,1.0,7.0,46,0.00,,,0.00,536.0,meteohub,2013-04-22 15:27:00,
2013-04-22 11:32:00,51.1,29.3,30.66,ENE,76,3.0,9.0,43,0.00,,,0.00,513.0,meteohub,2013-04-22 15:32:00,
2013-04-22 11:37:00,51.3,28.4,30.66,East,98,0.0,9.0,41,0.00,,,0.00,487.0,meteohub,2013-04-22 15:37:00,
2013-04-22 11:42:00,50.7,27.3,30.66,NE,46,1.0,9.0,40,0.00,,,0.00,408.0,meteohub,2013-04-22 15:42:00,
2013-04-22 11:47:00,50.5,27.7,30.66,ESE,118,3.0,9.0,41,0.00,,,0.00,424.0,meteohub,2013-04-22 15:47:00,
2013-04-22 11:52:00,50.9,28.0,30.65,East,84,1.0,10.0,41,0.00,,,0.00,515.0,meteohub,2013-04-22 15:52:00,
2013-04-22 11:57:00,51.3,28.9,30.65,ESE,111,1.0,10.0,42,0.00,,,0.00,475.0,meteohub,2013-04-22 15:57:00,
2013-04-22 12:02:00,51.1,26.4,30.64,ENE,59,0.0,10.0,38,0.00,,,0.00,461.0,meteohub,2013-04-22 16:02:00,
2013-04-22 12:07:00,51.3,25.9,30.64,NW,311,0.0,10.0,37,0.00,,,0.00,587.0,meteohub,2013-04-22 16:07:00,
2013-04-22 12:12:00,51.8,28.2,30.64,ESE,119,10.0,10.0,40,0.00,,,0.00,596.0,meteohub,2013-04-22 16:12:00,
2013-04-22 12:17:00,52.3,28.0,30.64,ESE,107,0.0,10.0,39,0.00,,,0.00,475.0,meteohub,2013-04-22 16:17:00,
2013-04-22 12:22:00,52.7,28.4,30.63,SSE,155,0.0,10.0,39,0.00,,,0.00,527.0,meteohub,2013-04-22 16:22:00,
2013-04-22 12:27:00,52.5,28.2,30.63,ESE,123,1.0,10.0,39,0.00,,,0.00,501.0,meteohub,2013-04-22 16:27:00,
2013-04-22 12:33:00,52.5,25.0,30.63,NW,307,0.0,10.0,34,0.00,,,0.00,531.0,meteohub,2013-04-22 16:33:00,
2013-04-22 12:38:00,52.9,28.0,30.62,SSE,157,2.0,9.0,38,0.00,,,0.00,529.0,meteohub,2013-04-22 16:38:00,
2013-04-22 12:43:00,53.2,27.0,30.62,SSE,153,3.0,9.0,36,0.00,,,0.00,510.0,meteohub,2013-04-22 16:43:00,
2013-04-22 12:49:00,53.6,29.3,30.62,SSE,148,6.0,9.0,39,0.00,,,0.00,621.0,meteohub,2013-04-22 16:49:00,
2013-04-22 12:54:00,54.0,27.0,30.61,SE,127,0.0,9.0,35,0.00,,,0.00,656.0,meteohub,2013-04-22 16:54:00,
2013-04-22 12:59:00,54.0,26.2,30.61,WSW,256,0.0,7.0,34,0.00,,,0.00,469.0,meteohub,2013-04-22 16:59:00,
2013-04-22 13:05:00,54.1,26.4,30.61,WNW,298,3.0,7.0,34,0.00,,,0.00,531.0,meteohub,2013-04-22 17:05:00,
2013-04-22 13:10:00,54.7,27.5,30.61,East,81,4.0,5.0,35,0.00,,,0.00,443.0,meteohub,2013-04-22 17:10:00,
2013-04-22 13:15:00,55.0,27.9,30.61,East,94,1.0,5.0,35,0.00,,,0.00,552.0,meteohub,2013-04-22 17:15:00,
2013-04-22 13:21:00,55.0,28.6,30.61,East,100,2.0,9.0,36,0.00,,,0.00,487.0,meteohub,2013-04-22 17:21:00,
2013-04-22 13:26:00,55.4,29.5,30.60,ENE,72,4.0,9.0,37,0.00,,,0.00,610.0,meteohub,2013-04-22 17:26:00,
2013-04-22 13:31:00,55.6,28.4,30.60,SE,140,0.0,13.0,35,0.00,,,0.00,694.0,meteohub,2013-04-22 17:31:00,
2013-04-22 13:36:00,55.6,27.7,30.60,SE,134,2.0,7.0,34,0.00,,,0.00,555.0,meteohub,2013-04-22 17:36:00,
2013-04-22 13:42:00,55.8,27.1,30.59,SSE,152,0.0,7.0,33,0.00,,,0.00,858.0,meteohub,2013-04-22 17:42:00,
2013-04-22 13:47:00,56.7,30.0,30.59,ENE,67,2.0,7.0,36,0.00,,,0.00,817.0,meteohub,2013-04-22 17:47:00,
2013-04-22 13:52:00,57.0,28.2,30.58,NE,51,0.0,7.0,33,0.00,,,0.00,858.0,meteohub,2013-04-22 17:52:00,
2013-04-22 13:57:00,57.6,30.7,30.58,ENE,68,1.0,12.0,36,0.00,,,0.00,877.0,meteohub,2013-04-22 17:57:00,
2013-04-22 14:02:00,57.9,28.2,30.58,ESE,106,3.0,12.0,32,0.00,,,0.00,886.0,meteohub,2013-04-22 18:02:00,
2013-04-22 14:07:00,58.3,29.3,30.58,SE,125,0.0,12.0,33,0.00,,,0.00,865.0,meteohub,2013-04-22 18:07:00,
2013-04-22 14:12:00,58.1,26.1,30.58,ESE,121,3.0,14.0,29,0.00,,,0.00,870.0,meteohub,2013-04-22 18:12:00,
2013-04-22 14:17:00,57.7,30.2,30.58,SE,146,1.0,14.0,35,0.00,,,0.00,863.0,meteohub,2013-04-22 18:17:00,
2013-04-22 14:22:00,58.3,27.9,30.57,SE,137,0.0,14.0,31,0.00,,,0.00,854.0,meteohub,2013-04-22 18:22:00,
2013-04-22 14:27:00,58.3,26.2,30.57,SSW,199,1.0,14.0,29,0.00,,,0.00,846.0,meteohub,2013-04-22 18:27:00,
2013-04-22 14:32:00,58.6,29.7,30.56,SSE,160,3.0,9.0,33,0.00,,,0.00,837.0,meteohub,2013-04-22 18:32:00,
2013-04-22 14:37:00,59.2,30.0,30.56,SE,142,3.0,9.0,33,0.00,,,0.00,826.0,meteohub,2013-04-22 18:37:00,
2013-04-22 14:43:00,59.4,29.5,30.56,ESE,103,2.0,9.0,32,0.00,,,0.00,817.0,meteohub,2013-04-22 18:43:00,
2013-04-22 14:48:00,60.1,30.2,30.56,WNW,282,4.0,9.0,32,0.00,,,0.00,807.0,meteohub,2013-04-22 18:48:00,
2013-04-22 14:53:00,60.4,32.0,30.55,SSW,209,2.0,9.0,34,0.00,,,0.00,800.0,meteohub,2013-04-22 18:53:00,
2013-04-22 14:58:00,59.9,30.0,30.55,South,181,0.0,8.0,32,0.00,,,0.00,788.0,meteohub,2013-04-22 18:58:00,
2013-04-22 15:04:00,59.7,29.8,30.54,NNE,27,1.0,8.0,32,0.00,,,0.00,777.0,meteohub,2013-04-22 19:04:00,
2013-04-22 15:09:00,59.5,28.0,30.54,SSW,196,0.0,14.0,30,0.00,,,0.00,766.0,meteohub,2013-04-22 19:09:00,
2013-04-22 15:14:00,59.7,29.8,30.53,SSW,198,6.0,14.0,32,0.00,,,0.00,742.0,meteohub,2013-04-22 19:14:00,
2013-04-22 15:20:00,59.7,28.2,30.53,SSE,167,1.0,11.0,30,0.00,,,0.00,742.0,meteohub,2013-04-22 19:20:00,
2013-04-22 15:25:00,59.7,30.6,30.53,South,180,2.0,11.0,33,0.00,,,0.00,731.0,meteohub,2013-04-22 19:25:00,
2013-04-22 15:30:00,59.9,30.0,30.53,SSW,213,6.0,11.0,32,0.00,,,0.00,717.0,meteohub,2013-04-22 19:30:00,
2013-04-22 15:36:00,59.5,28.0,30.52,SE,131,3.0,11.0,30,0.00,,,0.00,707.0,meteohub,2013-04-22 19:36:00,
2013-04-22 15:41:00,59.5,25.5,30.52,South,176,2.0,11.0,27,0.00,,,0.00,694.0,meteohub,2013-04-22 19:41:00,
2013-04-22 15:46:00,59.7,28.9,30.52,South,178,2.0,11.0,31,0.00,,,0.00,680.0,meteohub,2013-04-22 19:46:00,
2013-04-22 15:52:00,60.1,29.3,30.51,South,171,6.0,11.0,31,0.00,,,0.00,666.0,meteohub,2013-04-22 19:52:00,
2013-04-22 15:57:00,60.1,28.6,30.51,South,171,0.0,10.0,30,0.00,,,0.00,654.0,meteohub,2013-04-22 19:57:00,
2013-04-22 16:02:00,60.3,31.1,30.51,East,84,4.0,10.0,33,0.00,,,0.00,638.0,meteohub,2013-04-22 20:02:00,
2013-04-22 16:07:00,60.3,28.8,30.51,South,184,1.0,10.0,30,0.00,,,0.00,628.0,meteohub,2013-04-22 20:07:00,
2013-04-22 16:12:00,60.4,29.7,30.51,SSW,192,5.0,10.0,31,0.00,,,0.00,610.0,meteohub,2013-04-22 20:12:00,
2013-04-22 16:17:00,60.4,29.7,30.51,ESE,117,3.0,10.0,31,0.00,,,0.00,596.0,meteohub,2013-04-22 20:17:00,
2013-04-22 16:22:00,60.3,28.8,30.51,SE,144,2.0,11.0,30,0.00,,,0.00,582.0,meteohub,2013-04-22 20:22:00,
2013-04-22 16:27:00,60.3,28.8,30.51,South,188,1.0,11.0,30,0.00,,,0.00,564.0,meteohub,2013-04-22 20:27:00,
2013-04-22 16:32:00,60.3,28.8,30.50,South,175,0.0,11.0,30,0.00,,,0.00,548.0,meteohub,2013-04-22 20:32:00,
2013-04-22 16:37:00,60.4,31.3,30.50,SSE,168,5.0,7.0,33,0.00,,,0.00,533.0,meteohub,2013-04-22 20:37:00,
2013-04-22 16:42:00,60.3,30.2,30.50,NNE,27,1.0,7.0,32,0.00,,,0.00,522.0,meteohub,2013-04-22 20:42:00,
2013-04-22 16:47:00,59.9,31.5,30.50,SE,140,3.0,7.0,34,0.00,,,0.00,503.0,meteohub,2013-04-22 20:47:00,
2013-04-22 16:52:00,59.5,30.4,30.50,SSW,212,2.0,9.0,33,0.00,,,0.00,485.0,meteohub,2013-04-22 20:52:00,
2013-04-22 16:57:00,59.7,30.6,30.50,South,174,2.0,13.0,33,0.00,,,0.00,471.0,meteohub,2013-04-22 20:57:00,
2013-04-22 17:02:00,59.7,30.6,30.50,South,183,0.0,13.0,33,0.00,,,0.00,450.0,meteohub,2013-04-22 21:02:00,
2013-04-22 17:07:00,59.9,32.2,30.50,SSE,163,6.0,13.0,35,0.00,,,0.00,436.0,meteohub,2013-04-22 21:07:00,
2013-04-22 17:12:00,59.7,31.3,30.50,South,178,1.0,13.0,34,0.00,,,0.00,420.0,meteohub,2013-04-22 21:12:00,
2013-04-22 17:17:00,59.7,30.6,30.50,ESE,107,2.0,13.0,33,0.00,,,0.00,401.0,meteohub,2013-04-22 21:17:00,
2013-04-22 17:22:00,59.5,31.1,30.50,East,94,0.0,11.0,34,0.00,,,0.00,392.0,meteohub,2013-04-22 21:22:00,
2013-04-22 17:27:00,59.5,31.8,30.50,SSE,160,1.0,10.0,35,0.00,,,0.00,367.0,meteohub,2013-04-22 21:27:00,
2013-04-22 17:33:00,59.4,30.2,30.49,SW,214,4.0,10.0,33,0.00,,,0.00,348.0,meteohub,2013-04-22 21:33:00,
2013-04-22 17:38:00,59.4,32.4,30.49,SSE,167,3.0,11.0,36,0.00,,,0.00,329.0,meteohub,2013-04-22 21:38:00,
2013-04-22 17:43:00,59.4,30.9,30.49,SSE,150,2.0,11.0,34,0.00,,,0.00,313.0,meteohub,2013-04-22 21:43:00,
2013-04-22 17:49:00,59.2,30.7,30.49,ESE,117,3.0,11.0,34,0.00,,,0.00,288.0,meteohub,2013-04-22 21:49:00,
2013-04-22 17:54:00,58.8,29.8,30.49,ESE,111,6.0,11.0,33,0.00,,,0.00,276.0,meteohub,2013-04-22 21:54:00,
2013-04-22 17:59:00,58.6,30.4,30.49,ESE,115,6.0,12.0,34,0.00,,,0.00,262.0,meteohub,2013-04-22 21:59:00,
2013-04-22 18:05:00,58.5,29.5,30.49,East,87,2.0,12.0,33,0.00,,,0.00,213.0,meteohub,2013-04-22 22:05:00,
2013-04-22 18:10:00,58.3,30.0,30.49,ESE,119,2.0,12.0,34,0.00,,,0.00,165.0,meteohub,2013-04-22 22:10:00,
2013-04-22 18:15:00,58.1,29.8,30.50,SSE,165,4.0,12.0,34,0.00,,,0.00,142.0,meteohub,2013-04-22 22:15:00,
2013-04-22 18:20:00,57.7,30.2,30.49,SSE,148,2.0,12.0,35,0.00,,,0.00,90.0,meteohub,2013-04-22 22:20:00,
2013-04-22 18:26:00,57.7,30.2,30.49,SSE,155,2.0,11.0,35,0.00,,,0.00,95.0,meteohub,2013-04-22 22:26:00,
2013-04-22 18:31:00,57.4,29.3,30.49,ESE,113,2.0,11.0,34,0.00,,,0.00,88.0,meteohub,2013-04-22 22:31:00,
2013-04-22 18:36:00,57.0,29.7,30.49,ENE,63,0.0,11.0,35,0.00,,,0.00,76.0,meteohub,2013-04-22 22:36:00,
2013-04-22 18:42:00,56.8,30.9,30.49,ESE,122,5.0,8.0,37,0.00,,,0.00,56.0,meteohub,2013-04-22 22:42:00,
2013-04-22 18:47:00,56.5,29.8,30.49,SE,131,0.0,8.0,36,0.00,,,0.00,39.0,meteohub,2013-04-22 22:47:00,
2013-04-22 18:52:00,56.3,29.7,30.49,SSE,153,0.0,5.0,36,0.00,,,0.00,37.0,meteohub,2013-04-22 22:52:00,
2013-04-22 18:57:00,55.9,29.3,30.49,SE,133,9.0,9.0,36,0.00,,,0.00,35.0,meteohub,2013-04-22 22:57:00,
2013-04-22 19:02:00,55.8,28.6,30.50,ESE,111,2.0,11.0,35,0.00,,,0.00,33.0,meteohub,2013-04-22 23:02:00,
2013-04-22 19:07:00,55.6,29.7,30.50,SE,130,2.0,11.0,37,0.00,,,0.00,30.0,meteohub,2013-04-22 23:07:00,
2013-04-22 19:12:00,55.2,29.5,30.49,ESE,117,0.0,11.0,37,0.00,,,0.00,25.0,meteohub,2013-04-22 23:12:00,
2013-04-22 19:17:00,54.9,28.4,30.49,SSE,148,2.0,11.0,36,0.00,,,0.00,21.0,meteohub,2013-04-22 23:17:00,
2013-04-22 19:23:00,54.5,28.0,30.49,ESE,121,0.0,5.0,36,0.00,,,0.00,18.0,meteohub,2013-04-22 23:23:00,
2013-04-22 19:28:00,54.1,27.7,30.49,SSE,167,2.0,7.0,36,0.00,,,0.00,14.0,meteohub,2013-04-22 23:28:00,
2013-04-22 19:33:00,54.0,28.2,30.49,SE,146,2.0,7.0,37,0.00,,,0.00,11.0,meteohub,2013-04-22 23:33:00,
2013-04-22 19:39:00,53.6,28.0,30.50,SE,128,4.0,7.0,37,0.00,,,0.00,7.0,meteohub,2013-04-22 23:39:00,
2013-04-22 19:44:00,53.4,28.4,30.50,SE,131,1.0,7.0,38,0.00,,,0.00,5.0,meteohub,2013-04-22 23:44:00,
2013-04-22 19:49:00,53.1,28.0,30.50,SE,125,2.0,6.0,38,0.00,,,0.00,0.0,meteohub,2013-04-22 23:49:00,
2013-04-22 19:54:00,52.9,28.0,30.50,SSE,165,5.0,6.0,38,0.00,,,0.00,0.0,meteohub,2013-04-22 23:54:00,
2013-04-22 20:00:00,52.5,27.7,30.50,ESE,107,4.0,8.0,38,0.00,,,0.00,0.0,meteohub,2013-04-23 00:00:00,
2013-04-22 20:05:00,52.3,27.5,30.50,SSE,156,2.0,8.0,38,0.00,,,0.00,0.0,meteohub,2013-04-23 00:05:00,
2013-04-22 20:10:00,52.2,27.9,30.50,SSE,167,4.0,8.0,39,0.00,,,0.00,0.0,meteohub,2013-04-23 00:10:00,
2013-04-22 20:16:00,51.8,27.7,30.51,SSE,165,2.0,9.0,39,0.00,,,0.00,0.0,meteohub,2013-04-23 00:16:00,
2013-04-22 20:21:00,51.4,27.3,30.51,ESE,123,11.0,11.0,39,0.00,,,0.00,0.0,meteohub,2013-04-23 00:21:00,
2013-04-22 20:26:00,51.3,27.7,30.51,East,93,3.0,9.0,40,0.00,,,0.00,0.0,meteohub,2013-04-23 00:26:00,
2013-04-22 20:32:00,51.1,27.7,30.51,SE,142,2.0,11.0,40,0.00,,,0.00,0.0,meteohub,2013-04-23 00:32:00,
2013-04-22 20:37:00,50.7,27.3,30.51,ESE,118,3.0,11.0,40,0.00,,,0.00,0.0,meteohub,2013-04-23 00:37:00,
2013-04-22 20:42:00,50.5,27.7,30.51,ESE,119,2.0,11.0,41,0.00,,,0.00,0.0,meteohub,2013-04-23 00:42:00,
2013-04-22 20:47:00,50.5,27.7,30.51,SSE,165,1.0,11.0,41,0.00,,,0.00,0.0,meteohub,2013-04-23 00:47:00,
2013-04-22 20:52:00,50.2,27.3,30.51,SE,139,3.0,9.0,41,0.00,,,0.00,0.0,meteohub,2013-04-23 00:52:00,
2013-04-22 20:57:00,50.2,27.3,30.51,SE,143,1.0,9.0,41,0.00,,,0.00,0.0,meteohub,2013-04-23 00:57:00,
2013-04-22 21:02:00,49.8,27.1,30.51,ESE,106,4.0,5.0,41,0.00,,,0.00,0.0,meteohub,2013-04-23 01:02:00,
2013-04-22 21:07:00,49.6,27.0,30.51,ESE,111,3.0,5.0,41,0.00,,,0.00,0.0,meteohub,2013-04-23 01:07:00,
2013-04-22 21:12:00,49.6,27.5,30.51,ESE,107,4.0,6.0,42,0.00,,,0.00,0.0,meteohub,2013-04-23 01:12:00,
2013-04-22 21:17:00,49.5,27.3,30.51,SE,130,4.0,6.0,42,0.00,,,0.00,0.0,meteohub,2013-04-23 01:17:00,
2013-04-22 21:22:00,49.3,27.1,30.51,South,172,3.0,9.0,42,0.00,,,0.00,0.0,meteohub,2013-04-23 01:22:00,
2013-04-22 21:27:00,48.9,26.8,30.52,ESE,117,5.0,9.0,42,0.00,,,0.00,0.0,meteohub,2013-04-23 01:27:00,
2013-04-22 21:32:00,48.7,26.6,30.52,ESE,102,2.0,9.0,42,0.00,,,0.00,0.0,meteohub,2013-04-23 01:32:00,
2013-04-22 21:37:00,48.6,26.4,30.52,East,96,3.0,9.0,42,0.00,,,0.00,0.0,meteohub,2013-04-23 01:37:00,
2013-04-22 21:42:00,48.4,26.4,30.52,South,176,1.0,11.0,42,0.00,,,0.00,0.0,meteohub,2013-04-23 01:42:00,
2013-04-22 21:47:00,48.2,26.2,30.52,SE,137,4.0,11.0,42,0.00,,,0.00,0.0,meteohub,2013-04-23 01:47:00,
2013-04-22 21:52:00,48.0,27.1,30.52,ESE,121,1.0,11.0,44,0.00,,,0.00,0.0,meteohub,2013-04-23 01:52:00,
2013-04-22 21:57:00,47.8,26.4,30.52,ESE,107,0.0,11.0,43,0.00,,,0.00,0.0,meteohub,2013-04-23 01:57:00,
2013-04-22 22:02:00,47.7,27.3,30.52,ESE,107,1.0,9.0,45,0.00,,,0.00,0.0,meteohub,2013-04-23 02:02:00,
2013-04-22 22:07:00,47.3,27.0,30.52,SSE,149,0.0,9.0,45,0.00,,,0.00,0.0,meteohub,2013-04-23 02:07:00,
2013-04-22 22:12:00,47.1,27.9,30.52,SE,124,2.0,5.0,47,0.00,,,0.00,0.0,meteohub,2013-04-23 02:12:00,
2013-04-22 22:17:00,46.8,27.7,30.53,ESE,104,1.0,5.0,47,0.00,,,0.00,0.0,meteohub,2013-04-23 02:17:00,
2013-04-22 22:22:00,46.6,27.9,30.53,SSE,153,2.0,7.0,48,0.00,,,0.00,0.0,meteohub,2013-04-23 02:22:00,
2013-04-22 22:27:00,46.6,28.4,30.53,ESE,111,0.0,7.0,49,0.00,,,0.00,0.0,meteohub,2013-04-23 02:27:00,
2013-04-22 22:32:00,46.4,28.2,30.53,ESE,111,0.0,7.0,49,0.00,,,0.00,0.0,meteohub,2013-04-23 02:32:00,
2013-04-22 22:37:00,46.0,28.9,30.53,ESE,110,3.0,7.0,51,0.00,,,0.00,0.0,meteohub,2013-04-23 02:37:00,
2013-04-22 22:42:00,45.9,29.3,30.52,SSE,150,2.0,7.0,52,0.00,,,0.00,0.0,meteohub,2013-04-23 02:42:00,
2013-04-22 22:47:00,45.7,29.5,30.52,SE,142,3.0,7.0,53,0.00,,,0.00,0.0,meteohub,2013-04-23 02:47:00,
2013-04-22 22:52:00,45.7,29.5,30.52,SE,133,1.0,7.0,53,0.00,,,0.00,0.0,meteohub,2013-04-23 02:52:00,
2013-04-22 22:57:00,45.3,29.7,30.52,SE,132,0.0,7.0,54,0.00,,,0.00,0.0,meteohub,2013-04-23 02:57:00,
2013-04-22 23:02:00,45.3,29.1,30.52,SE,132,0.0,7.0,53,0.00,,,0.00,0.0,meteohub,2013-04-23 03:02:00,
2013-04-22 23:07:00,45.1,30.0,30.52,SE,132,0.0,7.0,55,0.00,,,0.00,0.0,meteohub,2013-04-23 03:07:00,
2013-04-22 23:12:00,45.0,29.8,30.52,SE,132,0.0,1.0,55,0.00,,,0.00,0.0,meteohub,2013-04-23 03:12:00,
2013-04-22 23:17:00,44.6,30.4,30.52,South,180,0.0,1.0,57,0.00,,,0.00,0.0,meteohub,2013-04-23 03:17:00,
2013-04-22 23:22:00,44.2,30.0,30.52,South,180,0.0,2.0,57,0.00,,,0.00,0.0,meteohub,2013-04-23 03:22:00,
2013-04-22 23:28:00,44.1,30.2,30.52,South,180,0.0,2.0,58,0.00,,,0.00,0.0,meteohub,2013-04-23 03:28:00,
2013-04-22 23:33:00,43.7,30.4,30.52,South,180,0.0,2.0,59,0.00,,,0.00,0.0,meteohub,2013-04-23 03:33:00,
2013-04-22 23:38:00,43.5,30.6,30.52,South,180,0.0,0.0,60,0.00,,,0.00,0.0,meteohub,2013-04-23 03:38:00,
2013-04-22 23:44:00,43.3,30.7,30.52,South,180,0.0,0.0,61,0.00,,,0.00,0.0,meteohub,2013-04-23 03:44:00,
2013-04-22 23:49:00,43.2,30.6,30.52,SSW,209,0.0,3.0,61,0.00,,,0.00,0.0,meteohub,2013-04-23 03:49:00,
2013-04-22 23:54:00,43.0,30.9,30.52,SSW,209,0.0,3.0,62,0.00,,,0.00,0.0,meteohub,2013-04-23 03:54:00,
2013-04-22 23:59:00,42.6,30.6,30.52,SSW,209,0.0,3.0,62,0.00,,,0.00,0.0,meteohub,2013-04-23 03:59:00,